Index of /20260507/WXO-DD/model_caps/3km/00/034
Name Last modified Size Description
Parent Directory -
20260507T00Z_MSC_CAPS_AbsoluteVorticity_IsbL-0250_RLatLon0.03_PT034H.grib2 2026-05-07 06:17 1.1M
20260507T00Z_MSC_CAPS_AbsoluteVorticity_IsbL-0500_RLatLon0.03_PT034H.grib2 2026-05-07 06:17 1.1M
20260507T00Z_MSC_CAPS_AbsoluteVorticity_IsbL-0700_RLatLon0.03_PT034H.grib2 2026-05-07 06:17 1.3M
20260507T00Z_MSC_CAPS_AbsoluteVorticity_IsbL-0850_RLatLon0.03_PT034H.grib2 2026-05-07 06:17 1.5M
20260507T00Z_MSC_CAPS_AbsoluteVorticity_IsbL-1000_RLatLon0.03_PT034H.grib2 2026-05-07 06:17 1.4M
20260507T00Z_MSC_CAPS_AirDensity_AGL-120m_RLatLon0.03_PT034H.grib2 2026-05-07 06:17 1.4M
20260507T00Z_MSC_CAPS_AirDensity_AGL-40m_RLatLon0.03_PT034H.grib2 2026-05-07 06:17 1.4M
20260507T00Z_MSC_CAPS_AirDensity_AGL-80m_RLatLon0.03_PT034H.grib2 2026-05-07 06:17 1.4M
20260507T00Z_MSC_CAPS_AirTemp_AGL-120m_RLatLon0.03_PT034H.grib2 2026-05-07 06:17 1.4M
20260507T00Z_MSC_CAPS_AirTemp_AGL-2m_RLatLon0.03_PT034H.grib2 2026-05-07 06:17 1.8M
20260507T00Z_MSC_CAPS_AirTemp_AGL-40m_RLatLon0.03_PT034H.grib2 2026-05-07 06:17 1.5M
20260507T00Z_MSC_CAPS_AirTemp_AGL-80m_RLatLon0.03_PT034H.grib2 2026-05-07 06:17 1.4M
20260507T00Z_MSC_CAPS_AirTemp_IsbL-0050_RLatLon0.03_PT034H.grib2 2026-05-07 06:17 690K
20260507T00Z_MSC_CAPS_AirTemp_IsbL-0100_RLatLon0.03_PT034H.grib2 2026-05-07 06:17 938K
20260507T00Z_MSC_CAPS_AirTemp_IsbL-0150_RLatLon0.03_PT034H.grib2 2026-05-07 06:17 743K
20260507T00Z_MSC_CAPS_AirTemp_IsbL-0175_RLatLon0.03_PT034H.grib2 2026-05-07 06:17 770K
20260507T00Z_MSC_CAPS_AirTemp_IsbL-0200_RLatLon0.03_PT034H.grib2 2026-05-07 06:17 790K
20260507T00Z_MSC_CAPS_AirTemp_IsbL-0225_RLatLon0.03_PT034H.grib2 2026-05-07 06:17 789K
20260507T00Z_MSC_CAPS_AirTemp_IsbL-0250_RLatLon0.03_PT034H.grib2 2026-05-07 06:17 775K
20260507T00Z_MSC_CAPS_AirTemp_IsbL-0275_RLatLon0.03_PT034H.grib2 2026-05-07 06:17 1.0M
20260507T00Z_MSC_CAPS_AirTemp_IsbL-0300_RLatLon0.03_PT034H.grib2 2026-05-07 06:17 1.0M
20260507T00Z_MSC_CAPS_AirTemp_IsbL-0350_RLatLon0.03_PT034H.grib2 2026-05-07 06:17 744K
20260507T00Z_MSC_CAPS_AirTemp_IsbL-0400_RLatLon0.03_PT034H.grib2 2026-05-07 06:17 749K
20260507T00Z_MSC_CAPS_AirTemp_IsbL-0450_RLatLon0.03_PT034H.grib2 2026-05-07 06:17 766K
20260507T00Z_MSC_CAPS_AirTemp_IsbL-0500_RLatLon0.03_PT034H.grib2 2026-05-07 06:17 789K
20260507T00Z_MSC_CAPS_AirTemp_IsbL-0550_RLatLon0.03_PT034H.grib2 2026-05-07 06:17 803K
20260507T00Z_MSC_CAPS_AirTemp_IsbL-0600_RLatLon0.03_PT034H.grib2 2026-05-07 06:17 819K
20260507T00Z_MSC_CAPS_AirTemp_IsbL-0650_RLatLon0.03_PT034H.grib2 2026-05-07 06:17 845K
20260507T00Z_MSC_CAPS_AirTemp_IsbL-0700_RLatLon0.03_PT034H.grib2 2026-05-07 06:17 883K
20260507T00Z_MSC_CAPS_AirTemp_IsbL-0750_RLatLon0.03_PT034H.grib2 2026-05-07 06:17 922K
20260507T00Z_MSC_CAPS_AirTemp_IsbL-0800_RLatLon0.03_PT034H.grib2 2026-05-07 06:17 1.1M
20260507T00Z_MSC_CAPS_AirTemp_IsbL-0850_RLatLon0.03_PT034H.grib2 2026-05-07 06:17 1.1M
20260507T00Z_MSC_CAPS_AirTemp_IsbL-0875_RLatLon0.03_PT034H.grib2 2026-05-07 06:17 1.1M
20260507T00Z_MSC_CAPS_AirTemp_IsbL-0900_RLatLon0.03_PT034H.grib2 2026-05-07 06:17 1.1M
20260507T00Z_MSC_CAPS_AirTemp_IsbL-0925_RLatLon0.03_PT034H.grib2 2026-05-07 06:17 1.1M
20260507T00Z_MSC_CAPS_AirTemp_IsbL-0950_RLatLon0.03_PT034H.grib2 2026-05-07 06:17 1.1M
20260507T00Z_MSC_CAPS_AirTemp_IsbL-0970_RLatLon0.03_PT034H.grib2 2026-05-07 06:17 1.1M
20260507T00Z_MSC_CAPS_AirTemp_IsbL-0985_RLatLon0.03_PT034H.grib2 2026-05-07 06:17 1.1M
20260507T00Z_MSC_CAPS_AirTemp_IsbL-1000_RLatLon0.03_PT034H.grib2 2026-05-07 06:17 1.1M
20260507T00Z_MSC_CAPS_AirTemp_IsbL-1015_RLatLon0.03_PT034H.grib2 2026-05-07 06:17 1.1M
20260507T00Z_MSC_CAPS_Albedo_Sfc_RLatLon0.03_PT034H.grib2 2026-05-07 06:17 2.7M
20260507T00Z_MSC_CAPS_CAPE_Sfc_RLatLon0.03_PT034H.grib2 2026-05-07 06:17 211K
20260507T00Z_MSC_CAPS_CloudWater_EAtm_RLatLon0.03_PT034H.grib2 2026-05-07 06:17 1.6M
20260507T00Z_MSC_CAPS_ConvectivePrecip-Accum_Sfc_RLatLon0.03_PT034H.grib2 2026-05-07 06:17 4.6M
20260507T00Z_MSC_CAPS_DewPointDepression_AGL-120m_RLatLon0.03_PT034H.grib2 2026-05-07 06:17 2.1M
20260507T00Z_MSC_CAPS_DewPointDepression_AGL-2m_RLatLon0.03_PT034H.grib2 2026-05-07 06:17 2.2M
20260507T00Z_MSC_CAPS_DewPointDepression_AGL-40m_RLatLon0.03_PT034H.grib2 2026-05-07 06:17 2.1M
20260507T00Z_MSC_CAPS_DewPointDepression_AGL-80m_RLatLon0.03_PT034H.grib2 2026-05-07 06:17 2.1M
20260507T00Z_MSC_CAPS_DewPointDepression_IsbL-0050_RLatLon0.03_PT034H.grib2 2026-05-07 06:17 7.1K
20260507T00Z_MSC_CAPS_DewPointDepression_IsbL-0100_RLatLon0.03_PT034H.grib2 2026-05-07 06:17 42K
20260507T00Z_MSC_CAPS_DewPointDepression_IsbL-0150_RLatLon0.03_PT034H.grib2 2026-05-07 06:17 69K
20260507T00Z_MSC_CAPS_DewPointDepression_IsbL-0175_RLatLon0.03_PT034H.grib2 2026-05-07 06:17 204K
20260507T00Z_MSC_CAPS_DewPointDepression_IsbL-0200_RLatLon0.03_PT034H.grib2 2026-05-07 06:17 408K
20260507T00Z_MSC_CAPS_DewPointDepression_IsbL-0225_RLatLon0.03_PT034H.grib2 2026-05-07 06:17 592K
20260507T00Z_MSC_CAPS_DewPointDepression_IsbL-0250_RLatLon0.03_PT034H.grib2 2026-05-07 06:17 867K
20260507T00Z_MSC_CAPS_DewPointDepression_IsbL-0275_RLatLon0.03_PT034H.grib2 2026-05-07 06:17 1.0M
20260507T00Z_MSC_CAPS_DewPointDepression_IsbL-0300_RLatLon0.03_PT034H.grib2 2026-05-07 06:17 1.1M
20260507T00Z_MSC_CAPS_DewPointDepression_IsbL-0350_RLatLon0.03_PT034H.grib2 2026-05-07 06:17 1.1M
20260507T00Z_MSC_CAPS_DewPointDepression_IsbL-0400_RLatLon0.03_PT034H.grib2 2026-05-07 06:17 1.1M
20260507T00Z_MSC_CAPS_DewPointDepression_IsbL-0450_RLatLon0.03_PT034H.grib2 2026-05-07 06:17 1.2M
20260507T00Z_MSC_CAPS_DewPointDepression_IsbL-0500_RLatLon0.03_PT034H.grib2 2026-05-07 06:17 1.2M
20260507T00Z_MSC_CAPS_DewPointDepression_IsbL-0550_RLatLon0.03_PT034H.grib2 2026-05-07 06:17 1.3M
20260507T00Z_MSC_CAPS_DewPointDepression_IsbL-0600_RLatLon0.03_PT034H.grib2 2026-05-07 06:17 1.3M
20260507T00Z_MSC_CAPS_DewPointDepression_IsbL-0650_RLatLon0.03_PT034H.grib2 2026-05-07 06:17 1.3M
20260507T00Z_MSC_CAPS_DewPointDepression_IsbL-0700_RLatLon0.03_PT034H.grib2 2026-05-07 06:17 1.4M
20260507T00Z_MSC_CAPS_DewPointDepression_IsbL-0750_RLatLon0.03_PT034H.grib2 2026-05-07 06:17 1.4M
20260507T00Z_MSC_CAPS_DewPointDepression_IsbL-0800_RLatLon0.03_PT034H.grib2 2026-05-07 06:17 1.4M
20260507T00Z_MSC_CAPS_DewPointDepression_IsbL-0850_RLatLon0.03_PT034H.grib2 2026-05-07 06:17 1.4M
20260507T00Z_MSC_CAPS_DewPointDepression_IsbL-0875_RLatLon0.03_PT034H.grib2 2026-05-07 06:17 1.4M
20260507T00Z_MSC_CAPS_DewPointDepression_IsbL-0900_RLatLon0.03_PT034H.grib2 2026-05-07 06:17 1.4M
20260507T00Z_MSC_CAPS_DewPointDepression_IsbL-0925_RLatLon0.03_PT034H.grib2 2026-05-07 06:17 1.4M
20260507T00Z_MSC_CAPS_DewPointDepression_IsbL-0950_RLatLon0.03_PT034H.grib2 2026-05-07 06:17 1.4M
20260507T00Z_MSC_CAPS_DewPointDepression_IsbL-0970_RLatLon0.03_PT034H.grib2 2026-05-07 06:17 1.4M
20260507T00Z_MSC_CAPS_DewPointDepression_IsbL-0985_RLatLon0.03_PT034H.grib2 2026-05-07 06:17 1.4M
20260507T00Z_MSC_CAPS_DewPointDepression_IsbL-1000_RLatLon0.03_PT034H.grib2 2026-05-07 06:17 1.4M
20260507T00Z_MSC_CAPS_DewPointDepression_IsbL-1015_RLatLon0.03_PT034H.grib2 2026-05-07 06:17 1.4M
20260507T00Z_MSC_CAPS_DewPoint_AGL-120m_RLatLon0.03_PT034H.grib2 2026-05-07 06:17 3.7M
20260507T00Z_MSC_CAPS_DewPoint_AGL-2m_RLatLon0.03_PT034H.grib2 2026-05-07 06:17 1.8M
20260507T00Z_MSC_CAPS_DewPoint_AGL-40m_RLatLon0.03_PT034H.grib2 2026-05-07 06:17 3.7M
20260507T00Z_MSC_CAPS_DewPoint_AGL-80m_RLatLon0.03_PT034H.grib2 2026-05-07 06:17 3.7M
20260507T00Z_MSC_CAPS_DownwardLongwaveRadiationFlux-Accum_Sfc_RLatLon0.03_PT034H.grib2 2026-05-07 06:17 2.6M
20260507T00Z_MSC_CAPS_DownwardShortwaveRadiationFlux-Accum_NTAtm_RLatLon0.03_PT034H.grib2 2026-05-07 06:17 467K
20260507T00Z_MSC_CAPS_DownwardShortwaveRadiationFlux-Accum_Sfc_RLatLon0.03_PT034H.grib2 2026-05-07 06:17 2.9M
20260507T00Z_MSC_CAPS_FreezingRain-Accum_Sfc_RLatLon0.03_PT034H.grib2 2026-05-07 06:17 916K
20260507T00Z_MSC_CAPS_GeopotentialHeight_IsbL-0050_RLatLon0.03_PT034H.grib2 2026-05-07 06:17 829K
20260507T00Z_MSC_CAPS_GeopotentialHeight_IsbL-0100_RLatLon0.03_PT034H.grib2 2026-05-07 06:17 811K
20260507T00Z_MSC_CAPS_GeopotentialHeight_IsbL-0150_RLatLon0.03_PT034H.grib2 2026-05-07 06:17 597K
20260507T00Z_MSC_CAPS_GeopotentialHeight_IsbL-0175_RLatLon0.03_PT034H.grib2 2026-05-07 06:17 714K
20260507T00Z_MSC_CAPS_GeopotentialHeight_IsbL-0200_RLatLon0.03_PT034H.grib2 2026-05-07 06:17 731K
20260507T00Z_MSC_CAPS_GeopotentialHeight_IsbL-0225_RLatLon0.03_PT034H.grib2 2026-05-07 06:17 742K
20260507T00Z_MSC_CAPS_GeopotentialHeight_IsbL-0250_RLatLon0.03_PT034H.grib2 2026-05-07 06:17 754K
20260507T00Z_MSC_CAPS_GeopotentialHeight_IsbL-0275_RLatLon0.03_PT034H.grib2 2026-05-07 06:17 769K
20260507T00Z_MSC_CAPS_GeopotentialHeight_IsbL-0300_RLatLon0.03_PT034H.grib2 2026-05-07 06:17 773K
20260507T00Z_MSC_CAPS_GeopotentialHeight_IsbL-0350_RLatLon0.03_PT034H.grib2 2026-05-07 06:17 773K
20260507T00Z_MSC_CAPS_GeopotentialHeight_IsbL-0400_RLatLon0.03_PT034H.grib2 2026-05-07 06:17 768K
20260507T00Z_MSC_CAPS_GeopotentialHeight_IsbL-0450_RLatLon0.03_PT034H.grib2 2026-05-07 06:17 761K
20260507T00Z_MSC_CAPS_GeopotentialHeight_IsbL-0500_RLatLon0.03_PT034H.grib2 2026-05-07 06:17 753K
20260507T00Z_MSC_CAPS_GeopotentialHeight_IsbL-0550_RLatLon0.03_PT034H.grib2 2026-05-07 06:17 744K
20260507T00Z_MSC_CAPS_GeopotentialHeight_IsbL-0600_RLatLon0.03_PT034H.grib2 2026-05-07 06:17 628K
20260507T00Z_MSC_CAPS_GeopotentialHeight_IsbL-0650_RLatLon0.03_PT034H.grib2 2026-05-07 06:17 626K
20260507T00Z_MSC_CAPS_GeopotentialHeight_IsbL-0700_RLatLon0.03_PT034H.grib2 2026-05-07 06:17 628K
20260507T00Z_MSC_CAPS_GeopotentialHeight_IsbL-0750_RLatLon0.03_PT034H.grib2 2026-05-07 06:17 626K
20260507T00Z_MSC_CAPS_GeopotentialHeight_IsbL-0800_RLatLon0.03_PT034H.grib2 2026-05-07 06:17 806K
20260507T00Z_MSC_CAPS_GeopotentialHeight_IsbL-0850_RLatLon0.03_PT034H.grib2 2026-05-07 06:17 815K
20260507T00Z_MSC_CAPS_GeopotentialHeight_IsbL-0875_RLatLon0.03_PT034H.grib2 2026-05-07 06:17 810K
20260507T00Z_MSC_CAPS_GeopotentialHeight_IsbL-0900_RLatLon0.03_PT034H.grib2 2026-05-07 06:17 828K
20260507T00Z_MSC_CAPS_GeopotentialHeight_IsbL-0925_RLatLon0.03_PT034H.grib2 2026-05-07 06:17 837K
20260507T00Z_MSC_CAPS_GeopotentialHeight_IsbL-0950_RLatLon0.03_PT034H.grib2 2026-05-07 06:17 838K
20260507T00Z_MSC_CAPS_GeopotentialHeight_IsbL-0970_RLatLon0.03_PT034H.grib2 2026-05-07 06:17 853K
20260507T00Z_MSC_CAPS_GeopotentialHeight_IsbL-0985_RLatLon0.03_PT034H.grib2 2026-05-07 06:17 864K
20260507T00Z_MSC_CAPS_GeopotentialHeight_IsbL-1000_RLatLon0.03_PT034H.grib2 2026-05-07 06:17 873K
20260507T00Z_MSC_CAPS_GeopotentialHeight_IsbL-1015_RLatLon0.03_PT034H.grib2 2026-05-07 06:17 881K
20260507T00Z_MSC_CAPS_GeopotentialHeight_Sfc_RLatLon0.03_PT034H.grib2 2026-05-07 06:17 1.0M
20260507T00Z_MSC_CAPS_IcePellets-Accum_Sfc_RLatLon0.03_PT034H.grib2 2026-05-07 06:17 13K
20260507T00Z_MSC_CAPS_LatentHeatNetFlux_Sfc_RLatLon0.03_PT034H.grib2 2026-05-07 06:17 1.8M
20260507T00Z_MSC_CAPS_LiftedIndex-MU-VT_IsbL-0500_RLatLon0.03_PT034H.grib2 2026-05-07 06:17 3.4M
20260507T00Z_MSC_CAPS_MixedLayerThickness_Sfc_RLatLon0.03_PT034H.nc 2026-05-07 06:13 16M
20260507T00Z_MSC_CAPS_NetLongwaveRadiationFlux-Accum_Sfc_RLatLon0.03_PT034H.grib2 2026-05-07 06:17 2.8M
20260507T00Z_MSC_CAPS_NetShortwaveRadiationFlux-Accum_Sfc_RLatLon0.03_PT034H.grib2 2026-05-07 06:17 2.8M
20260507T00Z_MSC_CAPS_PlanetaryBoundaryLayerHeight_Sfc_RLatLon0.03_PT034H.grib2 2026-05-07 06:17 2.6M
20260507T00Z_MSC_CAPS_Precip-Accum_Sfc_RLatLon0.03_PT034H.grib2 2026-05-07 06:17 5.4M
20260507T00Z_MSC_CAPS_PrecipRate_Sfc_RLatLon0.03_PT034H.grib2 2026-05-07 06:17 383K
20260507T00Z_MSC_CAPS_PrecipType-Instant_Sfc_RLatLon0.03_PT034H.grib2 2026-05-07 06:17 2.1M
20260507T00Z_MSC_CAPS_Pressure_MSL_RLatLon0.03_PT034H.grib2 2026-05-07 06:17 761K
20260507T00Z_MSC_CAPS_Pressure_Sfc_RLatLon0.03_PT034H.grib2 2026-05-07 06:17 1.2M
20260507T00Z_MSC_CAPS_RadiativeTemp_Sfc_RLatLon0.03_PT034H.grib2 2026-05-07 06:17 2.1M
20260507T00Z_MSC_CAPS_Rain-Accum_Sfc_RLatLon0.03_PT034H.grib2 2026-05-07 06:17 2.7M
20260507T00Z_MSC_CAPS_RelativeHumidity_AGL-120m_RLatLon0.03_PT034H.grib2 2026-05-07 06:17 2.8M
20260507T00Z_MSC_CAPS_RelativeHumidity_AGL-2m_RLatLon0.03_PT034H.grib2 2026-05-07 06:17 2.9M
20260507T00Z_MSC_CAPS_RelativeHumidity_AGL-40m_RLatLon0.03_PT034H.grib2 2026-05-07 06:17 2.9M
20260507T00Z_MSC_CAPS_RelativeHumidity_AGL-80m_RLatLon0.03_PT034H.grib2 2026-05-07 06:17 2.8M
20260507T00Z_MSC_CAPS_RelativeHumidity_IsbL-0050_RLatLon0.03_PT034H.grib2 2026-05-07 06:17 720K
20260507T00Z_MSC_CAPS_RelativeHumidity_IsbL-0100_RLatLon0.03_PT034H.grib2 2026-05-07 06:17 823K
20260507T00Z_MSC_CAPS_RelativeHumidity_IsbL-0150_RLatLon0.03_PT034H.grib2 2026-05-07 06:17 577K
20260507T00Z_MSC_CAPS_RelativeHumidity_IsbL-0175_RLatLon0.03_PT034H.grib2 2026-05-07 06:17 472K
20260507T00Z_MSC_CAPS_RelativeHumidity_IsbL-0200_RLatLon0.03_PT034H.grib2 2026-05-07 06:17 670K
20260507T00Z_MSC_CAPS_RelativeHumidity_IsbL-0225_RLatLon0.03_PT034H.grib2 2026-05-07 06:17 917K
20260507T00Z_MSC_CAPS_RelativeHumidity_IsbL-0250_RLatLon0.03_PT034H.grib2 2026-05-07 06:17 1.1M
20260507T00Z_MSC_CAPS_RelativeHumidity_IsbL-0275_RLatLon0.03_PT034H.grib2 2026-05-07 06:17 1.4M
20260507T00Z_MSC_CAPS_RelativeHumidity_IsbL-0300_RLatLon0.03_PT034H.grib2 2026-05-07 06:17 1.7M
20260507T00Z_MSC_CAPS_RelativeHumidity_IsbL-0350_RLatLon0.03_PT034H.grib2 2026-05-07 06:17 2.0M
20260507T00Z_MSC_CAPS_RelativeHumidity_IsbL-0400_RLatLon0.03_PT034H.grib2 2026-05-07 06:17 2.1M
20260507T00Z_MSC_CAPS_RelativeHumidity_IsbL-0450_RLatLon0.03_PT034H.grib2 2026-05-07 06:17 2.2M
20260507T00Z_MSC_CAPS_RelativeHumidity_IsbL-0500_RLatLon0.03_PT034H.grib2 2026-05-07 06:17 2.2M
20260507T00Z_MSC_CAPS_RelativeHumidity_IsbL-0550_RLatLon0.03_PT034H.grib2 2026-05-07 06:17 2.2M
20260507T00Z_MSC_CAPS_RelativeHumidity_IsbL-0600_RLatLon0.03_PT034H.grib2 2026-05-07 06:17 2.3M
20260507T00Z_MSC_CAPS_RelativeHumidity_IsbL-0650_RLatLon0.03_PT034H.grib2 2026-05-07 06:17 2.3M
20260507T00Z_MSC_CAPS_RelativeHumidity_IsbL-0700_RLatLon0.03_PT034H.grib2 2026-05-07 06:17 2.4M
20260507T00Z_MSC_CAPS_RelativeHumidity_IsbL-0750_RLatLon0.03_PT034H.grib2 2026-05-07 06:17 2.5M
20260507T00Z_MSC_CAPS_RelativeHumidity_IsbL-0800_RLatLon0.03_PT034H.grib2 2026-05-07 06:17 2.6M
20260507T00Z_MSC_CAPS_RelativeHumidity_IsbL-0850_RLatLon0.03_PT034H.grib2 2026-05-07 06:17 2.7M
20260507T00Z_MSC_CAPS_RelativeHumidity_IsbL-0875_RLatLon0.03_PT034H.grib2 2026-05-07 06:17 2.7M
20260507T00Z_MSC_CAPS_RelativeHumidity_IsbL-0900_RLatLon0.03_PT034H.grib2 2026-05-07 06:17 2.7M
20260507T00Z_MSC_CAPS_RelativeHumidity_IsbL-0925_RLatLon0.03_PT034H.grib2 2026-05-07 06:17 2.7M
20260507T00Z_MSC_CAPS_RelativeHumidity_IsbL-0950_RLatLon0.03_PT034H.grib2 2026-05-07 06:17 2.7M
20260507T00Z_MSC_CAPS_RelativeHumidity_IsbL-0970_RLatLon0.03_PT034H.grib2 2026-05-07 06:17 2.8M
20260507T00Z_MSC_CAPS_RelativeHumidity_IsbL-0985_RLatLon0.03_PT034H.grib2 2026-05-07 06:17 2.9M
20260507T00Z_MSC_CAPS_RelativeHumidity_IsbL-1000_RLatLon0.03_PT034H.grib2 2026-05-07 06:17 2.9M
20260507T00Z_MSC_CAPS_RelativeHumidity_IsbL-1015_RLatLon0.03_PT034H.grib2 2026-05-07 06:17 2.9M
20260507T00Z_MSC_CAPS_Runoff-Accum_Sfc_RLatLon0.03_PT034H.grib2 2026-05-07 06:17 423K
20260507T00Z_MSC_CAPS_SeaIceAreaFraction_Sfc_RLatLon0.03_PT034H.nc 2026-05-07 06:13 15M
20260507T00Z_MSC_CAPS_SeaIceCompressiveStrength_Sfc_RLatLon0.03_PT034H.nc 2026-05-07 06:13 15M
20260507T00Z_MSC_CAPS_SeaIceDivergence_Sfc_RLatLon0.03_PT034H.nc 2026-05-07 06:13 15M
20260507T00Z_MSC_CAPS_SeaIceInternalPressure_Sfc_RLatLon0.03_PT034H.nc 2026-05-07 06:13 15M
20260507T00Z_MSC_CAPS_SeaIceShear_Sfc_RLatLon0.03_PT034H.nc 2026-05-07 06:13 15M
20260507T00Z_MSC_CAPS_SeaIceSnowTemp_Sfc_RLatLon0.03_PT034H.nc 2026-05-07 06:13 14M
20260507T00Z_MSC_CAPS_SeaIceSnowVolume_Sfc_RLatLon0.03_PT034H.nc 2026-05-07 06:13 15M
20260507T00Z_MSC_CAPS_SeaIceVelocityX_Sfc_RLatLon0.03_PT034H.nc 2026-05-07 06:13 15M
20260507T00Z_MSC_CAPS_SeaIceVelocityY_Sfc_RLatLon0.03_PT034H.nc 2026-05-07 06:13 15M
20260507T00Z_MSC_CAPS_SeaIceVolume_Sfc_RLatLon0.03_PT034H.nc 2026-05-07 06:13 15M
20260507T00Z_MSC_CAPS_SeaSurfaceHeight_Sfc_RLatLon0.03_PT034H.nc 2026-05-07 06:13 16M
20260507T00Z_MSC_CAPS_SeaWaterSalinity_DBS-0.5m_RLatLon0.03_PT034H.nc 2026-05-07 06:13 16M
20260507T00Z_MSC_CAPS_SeaWaterSalinity_DBS-all_RLatLon0.03_PT034H.nc 2026-05-07 06:13 107M
20260507T00Z_MSC_CAPS_SeaWaterTemp_DBS-0.5m_RLatLon0.03_PT034H.nc 2026-05-07 06:13 15M
20260507T00Z_MSC_CAPS_SeaWaterTemp_DBS-all_RLatLon0.03_PT034H.nc 2026-05-07 06:13 88M
20260507T00Z_MSC_CAPS_SeaWaterVelocityX_DBS-0.5m_RLatLon0.03_PT034H.nc 2026-05-07 06:13 17M
20260507T00Z_MSC_CAPS_SeaWaterVelocityX_DBS-all_RLatLon0.03_PT034H.nc 2026-05-07 06:13 208M
20260507T00Z_MSC_CAPS_SeaWaterVelocityY_DBS-0.5m_RLatLon0.03_PT034H.nc 2026-05-07 06:13 18M
20260507T00Z_MSC_CAPS_SeaWaterVelocityY_DBS-all_RLatLon0.03_PT034H.nc 2026-05-07 06:13 217M
20260507T00Z_MSC_CAPS_SensibleHeatNetFlux_Sfc_RLatLon0.03_PT034H.grib2 2026-05-07 06:17 2.0M
20260507T00Z_MSC_CAPS_ShowalterIndex_IsbL-0500_RLatLon0.03_PT034H.grib2 2026-05-07 06:17 4.3M
20260507T00Z_MSC_CAPS_Snow-Accum_Sfc_RLatLon0.03_PT034H.grib2 2026-05-07 06:17 4.0M
20260507T00Z_MSC_CAPS_SnowDensity_Sfc_RLatLon0.03_PT034H.grib2 2026-05-07 06:17 1.3M
20260507T00Z_MSC_CAPS_SnowDepthWaterEquivalent_Sfc_RLatLon0.03_PT034H.grib2 2026-05-07 06:17 645K
20260507T00Z_MSC_CAPS_SnowDepth_Sfc_RLatLon0.03_PT034H.grib2 2026-05-07 06:17 1.1M
20260507T00Z_MSC_CAPS_SoilTemp_DBS-0to10cm_RLatLon0.03_PT034H.grib2 2026-05-07 06:17 1.6M
20260507T00Z_MSC_CAPS_SoilTemp_Sfc_RLatLon0.03_PT034H.grib2 2026-05-07 06:17 1.8M
20260507T00Z_MSC_CAPS_SoilVolumetricIceContent_Sfc_RLatLon0.03_PT034H.grib2 2026-05-07 06:17 1.3M
20260507T00Z_MSC_CAPS_SoilVolumetricWaterContent_DBS-0to10cm_RLatLon0.03_PT034H.grib2 2026-05-07 06:17 1.4M
20260507T00Z_MSC_CAPS_SoilVolumetricWaterContent_DBS-0to1cm_RLatLon0.03_PT034H.grib2 2026-05-07 06:17 1.8M
20260507T00Z_MSC_CAPS_SpecificHumidity_AGL-120m_RLatLon0.03_PT034H.grib2 2026-05-07 06:17 1.5M
20260507T00Z_MSC_CAPS_SpecificHumidity_AGL-2m_RLatLon0.03_PT034H.grib2 2026-05-07 06:17 1.8M
20260507T00Z_MSC_CAPS_SpecificHumidity_AGL-40m_RLatLon0.03_PT034H.grib2 2026-05-07 06:17 1.5M
20260507T00Z_MSC_CAPS_SpecificHumidity_AGL-80m_RLatLon0.03_PT034H.grib2 2026-05-07 06:17 1.5M
20260507T00Z_MSC_CAPS_SpecificHumidity_IsbL-0050_RLatLon0.03_PT034H.grib2 2026-05-07 06:17 917K
20260507T00Z_MSC_CAPS_SpecificHumidity_IsbL-0100_RLatLon0.03_PT034H.grib2 2026-05-07 06:17 961K
20260507T00Z_MSC_CAPS_SpecificHumidity_IsbL-0150_RLatLon0.03_PT034H.grib2 2026-05-07 06:17 1.0M
20260507T00Z_MSC_CAPS_SpecificHumidity_IsbL-0175_RLatLon0.03_PT034H.grib2 2026-05-07 06:17 1.0M
20260507T00Z_MSC_CAPS_SpecificHumidity_IsbL-0200_RLatLon0.03_PT034H.grib2 2026-05-07 06:17 910K
20260507T00Z_MSC_CAPS_SpecificHumidity_IsbL-0225_RLatLon0.03_PT034H.grib2 2026-05-07 06:17 1.1M
20260507T00Z_MSC_CAPS_SpecificHumidity_IsbL-0250_RLatLon0.03_PT034H.grib2 2026-05-07 06:17 1.1M
20260507T00Z_MSC_CAPS_SpecificHumidity_IsbL-0275_RLatLon0.03_PT034H.grib2 2026-05-07 06:17 1.1M
20260507T00Z_MSC_CAPS_SpecificHumidity_IsbL-0300_RLatLon0.03_PT034H.grib2 2026-05-07 06:17 1.1M
20260507T00Z_MSC_CAPS_SpecificHumidity_IsbL-0350_RLatLon0.03_PT034H.grib2 2026-05-07 06:17 1.0M
20260507T00Z_MSC_CAPS_SpecificHumidity_IsbL-0400_RLatLon0.03_PT034H.grib2 2026-05-07 06:17 1.0M
20260507T00Z_MSC_CAPS_SpecificHumidity_IsbL-0450_RLatLon0.03_PT034H.grib2 2026-05-07 06:17 1.0M
20260507T00Z_MSC_CAPS_SpecificHumidity_IsbL-0500_RLatLon0.03_PT034H.grib2 2026-05-07 06:17 1.1M
20260507T00Z_MSC_CAPS_SpecificHumidity_IsbL-0550_RLatLon0.03_PT034H.grib2 2026-05-07 06:17 1.3M
20260507T00Z_MSC_CAPS_SpecificHumidity_IsbL-0600_RLatLon0.03_PT034H.grib2 2026-05-07 06:17 1.5M
20260507T00Z_MSC_CAPS_SpecificHumidity_IsbL-0650_RLatLon0.03_PT034H.grib2 2026-05-07 06:17 1.2M
20260507T00Z_MSC_CAPS_SpecificHumidity_IsbL-0700_RLatLon0.03_PT034H.grib2 2026-05-07 06:17 1.4M
20260507T00Z_MSC_CAPS_SpecificHumidity_IsbL-0750_RLatLon0.03_PT034H.grib2 2026-05-07 06:17 1.5M
20260507T00Z_MSC_CAPS_SpecificHumidity_IsbL-0800_RLatLon0.03_PT034H.grib2 2026-05-07 06:17 1.7M
20260507T00Z_MSC_CAPS_SpecificHumidity_IsbL-0850_RLatLon0.03_PT034H.grib2 2026-05-07 06:17 1.9M
20260507T00Z_MSC_CAPS_SpecificHumidity_IsbL-0875_RLatLon0.03_PT034H.grib2 2026-05-07 06:17 1.9M
20260507T00Z_MSC_CAPS_SpecificHumidity_IsbL-0900_RLatLon0.03_PT034H.grib2 2026-05-07 06:17 2.0M
20260507T00Z_MSC_CAPS_SpecificHumidity_IsbL-0925_RLatLon0.03_PT034H.grib2 2026-05-07 06:17 1.6M
20260507T00Z_MSC_CAPS_SpecificHumidity_IsbL-0950_RLatLon0.03_PT034H.grib2 2026-05-07 06:17 1.7M
20260507T00Z_MSC_CAPS_SpecificHumidity_IsbL-0970_RLatLon0.03_PT034H.grib2 2026-05-07 06:17 1.7M
20260507T00Z_MSC_CAPS_SpecificHumidity_IsbL-0985_RLatLon0.03_PT034H.grib2 2026-05-07 06:17 1.7M
20260507T00Z_MSC_CAPS_SpecificHumidity_IsbL-1000_RLatLon0.03_PT034H.grib2 2026-05-07 06:17 1.8M
20260507T00Z_MSC_CAPS_SpecificHumidity_IsbL-1015_RLatLon0.03_PT034H.grib2 2026-05-07 06:17 1.8M
20260507T00Z_MSC_CAPS_SpecificHumidity_Sfc_RLatLon0.03_PT034H.grib2 2026-05-07 06:17 2.1M
20260507T00Z_MSC_CAPS_StormRelativeHelicity_Sfc_RLatLon0.03_PT034H.grib2 2026-05-07 06:17 3.2M
20260507T00Z_MSC_CAPS_Thickness_IsbL-1000to0500_RLatLon0.03_PT034H.grib2 2026-05-07 06:17 413K
20260507T00Z_MSC_CAPS_TotalCloudCover_Sfc_RLatLon0.03_PT034H.grib2 2026-05-07 06:17 3.7M
20260507T00Z_MSC_CAPS_TurboclineDepth_Sfc_RLatLon0.03_PT034H.nc 2026-05-07 06:13 16M
20260507T00Z_MSC_CAPS_UpwardLongwaveRadiationFlux_NTAtm_RLatLon0.03_PT034H.grib2 2026-05-07 06:17 3.0M
20260507T00Z_MSC_CAPS_UpwardShortwaveRadiationFlux_NTAtm_RLatLon0.03_PT034H.grib2 2026-05-07 06:17 2.1M
20260507T00Z_MSC_CAPS_VerticalVelocity_IsbL-0250_RLatLon0.03_PT034H.grib2 2026-05-07 06:17 1.1M
20260507T00Z_MSC_CAPS_VerticalVelocity_IsbL-0500_RLatLon0.03_PT034H.grib2 2026-05-07 06:17 1.0M
20260507T00Z_MSC_CAPS_VerticalVelocity_IsbL-0700_RLatLon0.03_PT034H.grib2 2026-05-07 06:17 1.2M
20260507T00Z_MSC_CAPS_VerticalVelocity_IsbL-0850_RLatLon0.03_PT034H.grib2 2026-05-07 06:17 1.1M
20260507T00Z_MSC_CAPS_VerticalVelocity_IsbL-1000_RLatLon0.03_PT034H.grib2 2026-05-07 06:17 1.3M
20260507T00Z_MSC_CAPS_WindDir_AGL-10m_RLatLon0.03_PT034H.grib2 2026-05-07 06:17 2.5M
20260507T00Z_MSC_CAPS_WindDir_AGL-120m_RLatLon0.03_PT034H.grib2 2026-05-07 06:17 1.3M
20260507T00Z_MSC_CAPS_WindDir_AGL-40m_RLatLon0.03_PT034H.grib2 2026-05-07 06:17 1.4M
20260507T00Z_MSC_CAPS_WindDir_AGL-80m_RLatLon0.03_PT034H.grib2 2026-05-07 06:17 1.3M
20260507T00Z_MSC_CAPS_WindDir_IsbL-0050_RLatLon0.03_PT034H.grib2 2026-05-07 06:17 1.2M
20260507T00Z_MSC_CAPS_WindDir_IsbL-0100_RLatLon0.03_PT034H.grib2 2026-05-07 06:17 1.1M
20260507T00Z_MSC_CAPS_WindDir_IsbL-0150_RLatLon0.03_PT034H.grib2 2026-05-07 06:17 1.1M
20260507T00Z_MSC_CAPS_WindDir_IsbL-0175_RLatLon0.03_PT034H.grib2 2026-05-07 06:17 1.1M
20260507T00Z_MSC_CAPS_WindDir_IsbL-0200_RLatLon0.03_PT034H.grib2 2026-05-07 06:17 1.1M
20260507T00Z_MSC_CAPS_WindDir_IsbL-0225_RLatLon0.03_PT034H.grib2 2026-05-07 06:17 1.1M
20260507T00Z_MSC_CAPS_WindDir_IsbL-0250_RLatLon0.03_PT034H.grib2 2026-05-07 06:17 1.1M
20260507T00Z_MSC_CAPS_WindDir_IsbL-0275_RLatLon0.03_PT034H.grib2 2026-05-07 06:17 1.1M
20260507T00Z_MSC_CAPS_WindDir_IsbL-0300_RLatLon0.03_PT034H.grib2 2026-05-07 06:17 1.1M
20260507T00Z_MSC_CAPS_WindDir_IsbL-0350_RLatLon0.03_PT034H.grib2 2026-05-07 06:17 1.1M
20260507T00Z_MSC_CAPS_WindDir_IsbL-0400_RLatLon0.03_PT034H.grib2 2026-05-07 06:17 1.2M
20260507T00Z_MSC_CAPS_WindDir_IsbL-0450_RLatLon0.03_PT034H.grib2 2026-05-07 06:17 1.2M
20260507T00Z_MSC_CAPS_WindDir_IsbL-0500_RLatLon0.03_PT034H.grib2 2026-05-07 06:17 1.3M
20260507T00Z_MSC_CAPS_WindDir_IsbL-0550_RLatLon0.03_PT034H.grib2 2026-05-07 06:17 1.3M
20260507T00Z_MSC_CAPS_WindDir_IsbL-0600_RLatLon0.03_PT034H.grib2 2026-05-07 06:17 1.3M
20260507T00Z_MSC_CAPS_WindDir_IsbL-0650_RLatLon0.03_PT034H.grib2 2026-05-07 06:17 1.4M
20260507T00Z_MSC_CAPS_WindDir_IsbL-0700_RLatLon0.03_PT034H.grib2 2026-05-07 06:17 1.5M
20260507T00Z_MSC_CAPS_WindDir_IsbL-0750_RLatLon0.03_PT034H.grib2 2026-05-07 06:17 1.6M
20260507T00Z_MSC_CAPS_WindDir_IsbL-0800_RLatLon0.03_PT034H.grib2 2026-05-07 06:17 1.8M
20260507T00Z_MSC_CAPS_WindDir_IsbL-0850_RLatLon0.03_PT034H.grib2 2026-05-07 06:17 1.9M
20260507T00Z_MSC_CAPS_WindDir_IsbL-0875_RLatLon0.03_PT034H.grib2 2026-05-07 06:17 1.9M
20260507T00Z_MSC_CAPS_WindDir_IsbL-0900_RLatLon0.03_PT034H.grib2 2026-05-07 06:17 2.0M
20260507T00Z_MSC_CAPS_WindDir_IsbL-0925_RLatLon0.03_PT034H.grib2 2026-05-07 06:17 2.1M
20260507T00Z_MSC_CAPS_WindDir_IsbL-0950_RLatLon0.03_PT034H.grib2 2026-05-07 06:17 2.1M
20260507T00Z_MSC_CAPS_WindDir_IsbL-0970_RLatLon0.03_PT034H.grib2 2026-05-07 06:17 2.2M
20260507T00Z_MSC_CAPS_WindDir_IsbL-0985_RLatLon0.03_PT034H.grib2 2026-05-07 06:17 2.3M
20260507T00Z_MSC_CAPS_WindDir_IsbL-1000_RLatLon0.03_PT034H.grib2 2026-05-07 06:17 2.4M
20260507T00Z_MSC_CAPS_WindDir_IsbL-1015_RLatLon0.03_PT034H.grib2 2026-05-07 06:17 2.5M
20260507T00Z_MSC_CAPS_WindGust-Max_AGL-10m_RLatLon0.03_PT034H.grib2 2026-05-07 06:17 2.6M
20260507T00Z_MSC_CAPS_WindGust-Min_AGL-10m_RLatLon0.03_PT034H.grib2 2026-05-07 06:17 2.4M
20260507T00Z_MSC_CAPS_WindGust_AGL-10m_RLatLon0.03_PT034H.grib2 2026-05-07 06:17 2.5M
20260507T00Z_MSC_CAPS_WindSpeed_AGL-10m_RLatLon0.03_PT034H.grib2 2026-05-07 06:17 2.1M
20260507T00Z_MSC_CAPS_WindSpeed_AGL-120m_RLatLon0.03_PT034H.grib2 2026-05-07 06:17 1.1M
20260507T00Z_MSC_CAPS_WindSpeed_AGL-40m_RLatLon0.03_PT034H.grib2 2026-05-07 06:17 1.2M
20260507T00Z_MSC_CAPS_WindSpeed_AGL-80m_RLatLon0.03_PT034H.grib2 2026-05-07 06:17 1.1M
20260507T00Z_MSC_CAPS_WindSpeed_IsbL-0050_RLatLon0.03_PT034H.grib2 2026-05-07 06:17 940K
20260507T00Z_MSC_CAPS_WindSpeed_IsbL-0100_RLatLon0.03_PT034H.grib2 2026-05-07 06:17 928K
20260507T00Z_MSC_CAPS_WindSpeed_IsbL-0150_RLatLon0.03_PT034H.grib2 2026-05-07 06:17 1.0M
20260507T00Z_MSC_CAPS_WindSpeed_IsbL-0175_RLatLon0.03_PT034H.grib2 2026-05-07 06:17 1.1M
20260507T00Z_MSC_CAPS_WindSpeed_IsbL-0200_RLatLon0.03_PT034H.grib2 2026-05-07 06:17 882K
20260507T00Z_MSC_CAPS_WindSpeed_IsbL-0225_RLatLon0.03_PT034H.grib2 2026-05-07 06:17 1.0M
20260507T00Z_MSC_CAPS_WindSpeed_IsbL-0250_RLatLon0.03_PT034H.grib2 2026-05-07 06:17 1.0M
20260507T00Z_MSC_CAPS_WindSpeed_IsbL-0275_RLatLon0.03_PT034H.grib2 2026-05-07 06:17 1.0M
20260507T00Z_MSC_CAPS_WindSpeed_IsbL-0300_RLatLon0.03_PT034H.grib2 2026-05-07 06:17 1.0M
20260507T00Z_MSC_CAPS_WindSpeed_IsbL-0350_RLatLon0.03_PT034H.grib2 2026-05-07 06:17 1.0M
20260507T00Z_MSC_CAPS_WindSpeed_IsbL-0400_RLatLon0.03_PT034H.grib2 2026-05-07 06:17 1.0M
20260507T00Z_MSC_CAPS_WindSpeed_IsbL-0450_RLatLon0.03_PT034H.grib2 2026-05-07 06:17 1.0M
20260507T00Z_MSC_CAPS_WindSpeed_IsbL-0500_RLatLon0.03_PT034H.grib2 2026-05-07 06:17 1.3M
20260507T00Z_MSC_CAPS_WindSpeed_IsbL-0550_RLatLon0.03_PT034H.grib2 2026-05-07 06:17 1.5M
20260507T00Z_MSC_CAPS_WindSpeed_IsbL-0600_RLatLon0.03_PT034H.grib2 2026-05-07 06:17 1.4M
20260507T00Z_MSC_CAPS_WindSpeed_IsbL-0650_RLatLon0.03_PT034H.grib2 2026-05-07 06:17 1.5M
20260507T00Z_MSC_CAPS_WindSpeed_IsbL-0700_RLatLon0.03_PT034H.grib2 2026-05-07 06:17 1.5M
20260507T00Z_MSC_CAPS_WindSpeed_IsbL-0750_RLatLon0.03_PT034H.grib2 2026-05-07 06:17 1.6M
20260507T00Z_MSC_CAPS_WindSpeed_IsbL-0800_RLatLon0.03_PT034H.grib2 2026-05-07 06:17 1.7M
20260507T00Z_MSC_CAPS_WindSpeed_IsbL-0850_RLatLon0.03_PT034H.grib2 2026-05-07 06:17 1.8M
20260507T00Z_MSC_CAPS_WindSpeed_IsbL-0875_RLatLon0.03_PT034H.grib2 2026-05-07 06:17 1.8M
20260507T00Z_MSC_CAPS_WindSpeed_IsbL-0900_RLatLon0.03_PT034H.grib2 2026-05-07 06:17 1.9M
20260507T00Z_MSC_CAPS_WindSpeed_IsbL-0925_RLatLon0.03_PT034H.grib2 2026-05-07 06:17 1.9M
20260507T00Z_MSC_CAPS_WindSpeed_IsbL-0950_RLatLon0.03_PT034H.grib2 2026-05-07 06:17 2.0M
20260507T00Z_MSC_CAPS_WindSpeed_IsbL-0970_RLatLon0.03_PT034H.grib2 2026-05-07 06:17 2.0M
20260507T00Z_MSC_CAPS_WindSpeed_IsbL-0985_RLatLon0.03_PT034H.grib2 2026-05-07 06:17 2.0M
20260507T00Z_MSC_CAPS_WindSpeed_IsbL-1000_RLatLon0.03_PT034H.grib2 2026-05-07 06:17 2.1M
20260507T00Z_MSC_CAPS_WindSpeed_IsbL-1015_RLatLon0.03_PT034H.grib2 2026-05-07 06:17 2.1M
20260507T00Z_MSC_CAPS_WindU_AGL-10m_RLatLon0.03_PT034H.grib2 2026-05-07 06:17 1.9M
20260507T00Z_MSC_CAPS_WindU_AGL-120m_RLatLon0.03_PT034H.grib2 2026-05-07 06:17 905K
20260507T00Z_MSC_CAPS_WindU_AGL-40m_RLatLon0.03_PT034H.grib2 2026-05-07 06:17 943K
20260507T00Z_MSC_CAPS_WindU_AGL-80m_RLatLon0.03_PT034H.grib2 2026-05-07 06:17 911K
20260507T00Z_MSC_CAPS_WindU_IsbL-0050_RLatLon0.03_PT034H.grib2 2026-05-07 06:17 939K
20260507T00Z_MSC_CAPS_WindU_IsbL-0100_RLatLon0.03_PT034H.grib2 2026-05-07 06:17 778K
20260507T00Z_MSC_CAPS_WindU_IsbL-0150_RLatLon0.03_PT034H.grib2 2026-05-07 06:17 911K
20260507T00Z_MSC_CAPS_WindU_IsbL-0175_RLatLon0.03_PT034H.grib2 2026-05-07 06:17 943K
20260507T00Z_MSC_CAPS_WindU_IsbL-0200_RLatLon0.03_PT034H.grib2 2026-05-07 06:17 752K
20260507T00Z_MSC_CAPS_WindU_IsbL-0225_RLatLon0.03_PT034H.grib2 2026-05-07 06:17 898K
20260507T00Z_MSC_CAPS_WindU_IsbL-0250_RLatLon0.03_PT034H.grib2 2026-05-07 06:17 917K
20260507T00Z_MSC_CAPS_WindU_IsbL-0275_RLatLon0.03_PT034H.grib2 2026-05-07 06:17 921K
20260507T00Z_MSC_CAPS_WindU_IsbL-0300_RLatLon0.03_PT034H.grib2 2026-05-07 06:17 929K
20260507T00Z_MSC_CAPS_WindU_IsbL-0350_RLatLon0.03_PT034H.grib2 2026-05-07 06:17 942K
20260507T00Z_MSC_CAPS_WindU_IsbL-0400_RLatLon0.03_PT034H.grib2 2026-05-07 06:17 951K
20260507T00Z_MSC_CAPS_WindU_IsbL-0450_RLatLon0.03_PT034H.grib2 2026-05-07 06:17 1.0M
20260507T00Z_MSC_CAPS_WindU_IsbL-0500_RLatLon0.03_PT034H.grib2 2026-05-07 06:17 897K
20260507T00Z_MSC_CAPS_WindU_IsbL-0550_RLatLon0.03_PT034H.grib2 2026-05-07 06:17 937K
20260507T00Z_MSC_CAPS_WindU_IsbL-0600_RLatLon0.03_PT034H.grib2 2026-05-07 06:17 964K
20260507T00Z_MSC_CAPS_WindU_IsbL-0650_RLatLon0.03_PT034H.grib2 2026-05-07 06:17 1.0M
20260507T00Z_MSC_CAPS_WindU_IsbL-0700_RLatLon0.03_PT034H.grib2 2026-05-07 06:17 1.0M
20260507T00Z_MSC_CAPS_WindU_IsbL-0750_RLatLon0.03_PT034H.grib2 2026-05-07 06:17 1.1M
20260507T00Z_MSC_CAPS_WindU_IsbL-0800_RLatLon0.03_PT034H.grib2 2026-05-07 06:17 1.2M
20260507T00Z_MSC_CAPS_WindU_IsbL-0850_RLatLon0.03_PT034H.grib2 2026-05-07 06:17 1.2M
20260507T00Z_MSC_CAPS_WindU_IsbL-0875_RLatLon0.03_PT034H.grib2 2026-05-07 06:17 1.3M
20260507T00Z_MSC_CAPS_WindU_IsbL-0900_RLatLon0.03_PT034H.grib2 2026-05-07 06:17 1.3M
20260507T00Z_MSC_CAPS_WindU_IsbL-0925_RLatLon0.03_PT034H.grib2 2026-05-07 06:17 1.3M
20260507T00Z_MSC_CAPS_WindU_IsbL-0950_RLatLon0.03_PT034H.grib2 2026-05-07 06:17 1.4M
20260507T00Z_MSC_CAPS_WindU_IsbL-0970_RLatLon0.03_PT034H.grib2 2026-05-07 06:17 1.4M
20260507T00Z_MSC_CAPS_WindU_IsbL-0985_RLatLon0.03_PT034H.grib2 2026-05-07 06:17 1.5M
20260507T00Z_MSC_CAPS_WindU_IsbL-1000_RLatLon0.03_PT034H.grib2 2026-05-07 06:17 1.9M
20260507T00Z_MSC_CAPS_WindU_IsbL-1015_RLatLon0.03_PT034H.grib2 2026-05-07 06:17 1.9M
20260507T00Z_MSC_CAPS_WindV_AGL-10m_RLatLon0.03_PT034H.grib2 2026-05-07 06:17 2.0M
20260507T00Z_MSC_CAPS_WindV_AGL-120m_RLatLon0.03_PT034H.grib2 2026-05-07 06:17 1.2M
20260507T00Z_MSC_CAPS_WindV_AGL-40m_RLatLon0.03_PT034H.grib2 2026-05-07 06:17 1.2M
20260507T00Z_MSC_CAPS_WindV_AGL-80m_RLatLon0.03_PT034H.grib2 2026-05-07 06:17 1.2M
20260507T00Z_MSC_CAPS_WindV_IsbL-0050_RLatLon0.03_PT034H.grib2 2026-05-07 06:17 769K
20260507T00Z_MSC_CAPS_WindV_IsbL-0100_RLatLon0.03_PT034H.grib2 2026-05-07 06:17 940K
20260507T00Z_MSC_CAPS_WindV_IsbL-0150_RLatLon0.03_PT034H.grib2 2026-05-07 06:17 693K
20260507T00Z_MSC_CAPS_WindV_IsbL-0175_RLatLon0.03_PT034H.grib2 2026-05-07 06:17 840K
20260507T00Z_MSC_CAPS_WindV_IsbL-0200_RLatLon0.03_PT034H.grib2 2026-05-07 06:17 866K
20260507T00Z_MSC_CAPS_WindV_IsbL-0225_RLatLon0.03_PT034H.grib2 2026-05-07 06:17 682K
20260507T00Z_MSC_CAPS_WindV_IsbL-0250_RLatLon0.03_PT034H.grib2 2026-05-07 06:17 696K
20260507T00Z_MSC_CAPS_WindV_IsbL-0275_RLatLon0.03_PT034H.grib2 2026-05-07 06:17 703K
20260507T00Z_MSC_CAPS_WindV_IsbL-0300_RLatLon0.03_PT034H.grib2 2026-05-07 06:17 711K
20260507T00Z_MSC_CAPS_WindV_IsbL-0350_RLatLon0.03_PT034H.grib2 2026-05-07 06:17 721K
20260507T00Z_MSC_CAPS_WindV_IsbL-0400_RLatLon0.03_PT034H.grib2 2026-05-07 06:17 725K
20260507T00Z_MSC_CAPS_WindV_IsbL-0450_RLatLon0.03_PT034H.grib2 2026-05-07 06:17 966K
20260507T00Z_MSC_CAPS_WindV_IsbL-0500_RLatLon0.03_PT034H.grib2 2026-05-07 06:17 1.0M
20260507T00Z_MSC_CAPS_WindV_IsbL-0550_RLatLon0.03_PT034H.grib2 2026-05-07 06:17 1.0M
20260507T00Z_MSC_CAPS_WindV_IsbL-0600_RLatLon0.03_PT034H.grib2 2026-05-07 06:17 945K
20260507T00Z_MSC_CAPS_WindV_IsbL-0650_RLatLon0.03_PT034H.grib2 2026-05-07 06:17 1.0M
20260507T00Z_MSC_CAPS_WindV_IsbL-0700_RLatLon0.03_PT034H.grib2 2026-05-07 06:17 1.0M
20260507T00Z_MSC_CAPS_WindV_IsbL-0750_RLatLon0.03_PT034H.grib2 2026-05-07 06:17 1.1M
20260507T00Z_MSC_CAPS_WindV_IsbL-0800_RLatLon0.03_PT034H.grib2 2026-05-07 06:17 1.1M
20260507T00Z_MSC_CAPS_WindV_IsbL-0850_RLatLon0.03_PT034H.grib2 2026-05-07 06:17 1.2M
20260507T00Z_MSC_CAPS_WindV_IsbL-0875_RLatLon0.03_PT034H.grib2 2026-05-07 06:17 1.3M
20260507T00Z_MSC_CAPS_WindV_IsbL-0900_RLatLon0.03_PT034H.grib2 2026-05-07 06:17 1.3M
20260507T00Z_MSC_CAPS_WindV_IsbL-0925_RLatLon0.03_PT034H.grib2 2026-05-07 06:17 1.3M
20260507T00Z_MSC_CAPS_WindV_IsbL-0950_RLatLon0.03_PT034H.grib2 2026-05-07 06:17 1.7M
20260507T00Z_MSC_CAPS_WindV_IsbL-0970_RLatLon0.03_PT034H.grib2 2026-05-07 06:17 1.8M
20260507T00Z_MSC_CAPS_WindV_IsbL-0985_RLatLon0.03_PT034H.grib2 2026-05-07 06:17 1.9M
20260507T00Z_MSC_CAPS_WindV_IsbL-1000_RLatLon0.03_PT034H.grib2 2026-05-07 06:17 2.0M
20260507T00Z_MSC_CAPS_WindV_IsbL-1015_RLatLon0.03_PT034H.grib2 2026-05-07 06:17 2.0M